Time,TemperatureF,DewpointF,PressureIn,WindDirection,WindDirectionDegrees,WindSpeedMPH,WindSpeedGustMPH,Humidity,HourlyPrecipIn,Conditions,Clouds,dailyrainin,SolarRadiationWatts/m^2,SoftwareType,DateUTC
2013-01-27 00:00:00,41.9,28.9,30.27,NNE,22,0.0,5.0,55,0.00,,,0.01,0.0,meteohub,2013-01-27 05:00:00,
2013-01-27 00:02:00,42.1,29.1,30.27,NNE,22,0.0,5.0,55,0.00,,,0.01,0.0,meteohub,2013-01-27 05:02:00,
2013-01-27 00:03:00,42.1,29.1,30.27,NNE,22,0.0,5.0,55,0.00,,,0.01,0.0,meteohub,2013-01-27 05:03:00,
2013-01-27 00:12:00,42.1,29.1,30.27,NNE,22,0.0,1.0,55,0.00,,,0.00,0.0,meteohub,2013-01-27 05:12:00,
2013-01-27 00:17:00,41.5,29.1,30.27,NNE,22,0.0,0.0,56,0.00,,,0.00,0.0,meteohub,2013-01-27 05:17:00,
2013-01-27 00:22:00,41.4,29.3,30.27,NNE,22,0.0,0.0,57,0.00,,,0.00,0.0,meteohub,2013-01-27 05:22:00,
2013-01-27 00:27:00,41.0,29.3,30.28,NNE,22,0.0,0.0,58,0.00,,,0.00,0.0,meteohub,2013-01-27 05:27:00,
2013-01-27 00:32:00,40.8,29.7,30.28,NNE,22,0.0,0.0,59,0.00,,,0.00,0.0,meteohub,2013-01-27 05:32:00,
2013-01-27 00:37:00,40.5,30.0,30.28,NNE,22,0.0,0.0,61,0.00,,,0.00,0.0,meteohub,2013-01-27 05:37:00,
2013-01-27 00:42:00,40.3,29.8,30.28,NNE,22,0.0,0.0,61,0.00,,,0.00,0.0,meteohub,2013-01-27 05:42:00,
2013-01-27 00:47:00,40.6,29.8,30.28,NNE,22,0.0,0.0,60,0.00,,,0.00,0.0,meteohub,2013-01-27 05:47:00,
2013-01-27 00:52:00,40.8,29.7,30.28,NNE,22,0.0,0.0,59,0.00,,,0.00,0.0,meteohub,2013-01-27 05:52:00,
2013-01-27 00:57:00,41.0,29.8,30.28,NNE,22,0.0,0.0,59,0.00,,,0.00,0.0,meteohub,2013-01-27 05:57:00,
2013-01-27 01:02:00,40.6,30.6,30.29,NNE,22,0.0,0.0,62,0.00,,,0.00,0.0,meteohub,2013-01-27 06:02:00,
2013-01-27 01:07:00,40.5,30.7,30.29,NNE,22,0.0,1.0,63,0.00,,,0.00,0.0,meteohub,2013-01-27 06:07:00,
2013-01-27 01:12:00,40.5,30.7,30.29,NNE,22,0.0,1.0,63,0.00,,,0.00,0.0,meteohub,2013-01-27 06:12:00,
2013-01-27 01:17:00,40.3,30.9,30.29,NNE,22,0.0,1.0,64,0.00,,,0.00,0.0,meteohub,2013-01-27 06:17:00,
2013-01-27 01:22:00,40.3,30.9,30.29,NNE,22,0.0,1.0,64,0.00,,,0.00,0.0,meteohub,2013-01-27 06:22:00,
2013-01-27 01:27:00,40.6,30.6,30.29,NNE,22,0.0,1.0,62,0.00,,,0.00,0.0,meteohub,2013-01-27 06:27:00,
2013-01-27 01:32:00,40.6,30.2,30.29,NNE,22,0.0,1.0,61,0.00,,,0.00,0.0,meteohub,2013-01-27 06:32:00,
2013-01-27 01:37:00,40.8,30.4,30.29,NNE,22,0.0,1.0,61,0.00,,,0.00,0.0,meteohub,2013-01-27 06:37:00,
2013-01-27 01:42:00,41.2,30.0,30.29,NNE,22,0.0,0.0,59,0.00,,,0.00,0.0,meteohub,2013-01-27 06:42:00,
2013-01-27 01:47:00,41.4,30.0,30.29,NNE,22,0.0,0.0,59,0.00,,,0.00,0.0,meteohub,2013-01-27 06:47:00,
2013-01-27 01:52:00,41.2,30.4,30.29,NNE,22,0.0,0.0,60,0.00,,,0.00,0.0,meteohub,2013-01-27 06:52:00,
2013-01-27 01:57:00,41.2,30.7,30.30,NNE,22,0.0,0.0,61,0.00,,,0.00,0.0,meteohub,2013-01-27 06:57:00,
2013-01-27 02:02:00,40.8,30.4,30.30,NNE,22,0.0,0.0,61,0.00,,,0.00,0.0,meteohub,2013-01-27 07:02:00,
2013-01-27 02:07:00,41.0,30.6,30.30,NNE,22,0.0,1.0,61,0.00,,,0.00,0.0,meteohub,2013-01-27 07:07:00,
2013-01-27 02:13:00,41.2,30.4,30.30,NNE,22,0.0,1.0,60,0.00,,,0.00,0.0,meteohub,2013-01-27 07:13:00,
2013-01-27 02:18:00,41.2,30.0,30.30,NNE,22,0.0,0.0,59,0.00,,,0.00,0.0,meteohub,2013-01-27 07:18:00,
2013-01-27 02:23:00,41.4,30.0,30.30,NNE,22,0.0,0.0,59,0.00,,,0.00,0.0,meteohub,2013-01-27 07:23:00,
2013-01-27 02:28:00,41.2,30.4,30.30,NNE,22,0.0,0.0,60,0.00,,,0.00,0.0,meteohub,2013-01-27 07:28:00,
2013-01-27 02:33:00,41.0,30.6,30.30,NNE,22,0.0,0.0,61,0.00,,,0.00,0.0,meteohub,2013-01-27 07:33:00,
2013-01-27 02:38:00,41.0,30.6,30.30,NNE,22,0.0,0.0,61,0.00,,,0.00,0.0,meteohub,2013-01-27 07:38:00,
2013-01-27 02:43:00,41.0,30.2,30.30,NNE,22,0.0,0.0,60,0.00,,,0.00,0.0,meteohub,2013-01-27 07:43:00,
2013-01-27 02:48:00,41.2,30.0,30.30,NNE,22,0.0,2.0,59,0.00,,,0.00,0.0,meteohub,2013-01-27 07:48:00,
2013-01-27 02:53:00,41.4,30.0,30.30,NNE,22,0.0,2.0,59,0.00,,,0.00,0.0,meteohub,2013-01-27 07:53:00,
2013-01-27 02:58:00,41.4,30.6,30.30,NNE,22,0.0,1.0,60,0.00,,,0.00,0.0,meteohub,2013-01-27 07:58:00,
2013-01-27 03:03:00,41.4,30.0,30.30,NNE,22,0.0,1.0,59,0.00,,,0.00,0.0,meteohub,2013-01-27 08:03:00,
2013-01-27 03:08:00,41.5,29.8,30.30,NNE,22,0.0,2.0,58,0.00,,,0.00,0.0,meteohub,2013-01-27 08:08:00,
2013-01-27 03:13:00,41.7,30.0,30.31,NNE,24,2.0,3.0,58,0.00,,,0.00,0.0,meteohub,2013-01-27 08:13:00,
2013-01-27 03:18:00,42.1,30.4,30.31,NNE,24,3.0,5.0,58,0.00,,,0.00,0.0,meteohub,2013-01-27 08:18:00,
2013-01-27 03:23:00,42.1,30.4,30.31,NNE,21,7.0,7.0,58,0.00,,,0.00,0.0,meteohub,2013-01-27 08:23:00,
2013-01-27 03:28:00,42.1,30.7,30.30,NNE,30,3.0,9.0,59,0.00,,,0.00,0.0,meteohub,2013-01-27 08:28:00,
2013-01-27 03:33:00,41.9,30.6,30.30,NNE,22,4.0,9.0,59,0.00,,,0.00,0.0,meteohub,2013-01-27 08:33:00,
2013-01-27 03:38:00,41.9,30.6,30.30,NE,56,1.0,10.0,59,0.00,,,0.00,0.0,meteohub,2013-01-27 08:38:00,
2013-01-27 03:43:00,41.7,30.7,30.31,NE,34,1.0,10.0,60,0.00,,,0.00,0.0,meteohub,2013-01-27 08:43:00,
2013-01-27 03:48:00,41.7,31.3,30.31,ENE,58,3.0,10.0,61,0.00,,,0.00,0.0,meteohub,2013-01-27 08:48:00,
2013-01-27 03:53:00,41.7,31.3,30.31,NNE,24,3.0,6.0,61,0.00,,,0.00,0.0,meteohub,2013-01-27 08:53:00,
2013-01-27 03:58:00,41.5,31.1,30.31,NNE,30,4.0,8.0,61,0.00,,,0.00,0.0,meteohub,2013-01-27 08:58:00,
2013-01-27 04:03:00,41.5,31.5,30.31,NNE,32,1.0,8.0,62,0.00,,,0.00,0.0,meteohub,2013-01-27 09:03:00,
2013-01-27 04:08:00,41.5,31.5,30.31,ENE,74,0.0,8.0,62,0.00,,,0.00,0.0,meteohub,2013-01-27 09:08:00,
2013-01-27 04:13:00,41.4,31.6,30.31,NNE,23,6.0,7.0,63,0.00,,,0.00,0.0,meteohub,2013-01-27 09:13:00,
2013-01-27 04:18:00,41.4,31.6,30.31,NNE,28,2.0,7.0,63,0.00,,,0.00,0.0,meteohub,2013-01-27 09:18:00,
2013-01-27 04:23:00,41.4,31.6,30.31,NNE,32,3.0,7.0,63,0.00,,,0.00,0.0,meteohub,2013-01-27 09:23:00,
2013-01-27 04:28:00,41.4,31.6,30.31,NNE,29,3.0,9.0,63,0.00,,,0.00,0.0,meteohub,2013-01-27 09:28:00,
2013-01-27 04:33:00,41.4,32.0,30.32,NNE,22,5.0,9.0,64,0.00,,,0.00,0.0,meteohub,2013-01-27 09:33:00,
2013-01-27 04:38:00,41.4,32.0,30.32,NE,46,6.0,10.0,64,0.00,,,0.00,0.0,meteohub,2013-01-27 09:38:00,
2013-01-27 04:43:00,41.4,32.0,30.32,East,81,2.0,10.0,64,0.00,,,0.00,0.0,meteohub,2013-01-27 09:43:00,
2013-01-27 04:48:00,41.4,32.4,30.33,NE,38,4.0,10.0,65,0.00,,,0.00,0.0,meteohub,2013-01-27 09:48:00,
2013-01-27 04:53:00,41.4,32.4,30.33,NNE,25,8.0,8.0,65,0.00,,,0.00,0.0,meteohub,2013-01-27 09:53:00,
2013-01-27 04:58:00,41.4,32.4,30.33,East,79,1.0,11.0,65,0.00,,,0.00,0.0,meteohub,2013-01-27 09:58:00,
2013-01-27 05:03:00,41.4,32.4,30.33,ENE,66,0.0,14.0,65,0.00,,,0.00,0.0,meteohub,2013-01-27 10:03:00,
2013-01-27 05:09:00,41.2,32.2,30.33,ENE,74,3.0,14.0,65,0.00,,,0.00,0.0,meteohub,2013-01-27 10:09:00,
2013-01-27 05:14:00,41.2,32.5,30.33,NE,44,5.0,14.0,66,0.00,,,0.00,0.0,meteohub,2013-01-27 10:14:00,
2013-01-27 05:19:00,41.0,32.4,30.34,NNE,28,2.0,11.0,66,0.00,,,0.00,0.0,meteohub,2013-01-27 10:19:00,
2013-01-27 05:24:00,41.0,32.4,30.34,ENE,71,6.0,11.0,66,0.00,,,0.00,0.0,meteohub,2013-01-27 10:24:00,
2013-01-27 05:29:00,41.0,32.4,30.34,ENE,59,2.0,10.0,66,0.00,,,0.00,0.0,meteohub,2013-01-27 10:29:00,
2013-01-27 05:34:00,40.8,32.2,30.34,NE,42,4.0,10.0,66,0.00,,,0.00,0.0,meteohub,2013-01-27 10:34:00,
2013-01-27 05:39:00,40.8,32.5,30.33,ENE,67,1.0,15.0,67,0.00,,,0.00,0.0,meteohub,2013-01-27 10:39:00,
2013-01-27 05:44:00,40.8,32.5,30.34,NNE,21,2.0,15.0,67,0.00,,,0.00,0.0,meteohub,2013-01-27 10:44:00,
2013-01-27 05:49:00,40.6,32.4,30.34,ENE,70,2.0,15.0,67,0.00,,,0.00,0.0,meteohub,2013-01-27 10:49:00,
2013-01-27 05:54:00,40.6,32.4,30.34,ENE,59,3.0,11.0,67,0.00,,,0.00,0.0,meteohub,2013-01-27 10:54:00,
2013-01-27 05:59:00,40.6,32.7,30.34,ENE,74,2.0,11.0,68,0.00,,,0.00,0.0,meteohub,2013-01-27 10:59:00,
2013-01-27 06:04:00,40.6,32.7,30.35,ENE,71,3.0,10.0,68,0.00,,,0.00,0.0,meteohub,2013-01-27 11:04:00,
2013-01-27 06:09:00,40.5,32.5,30.35,NE,43,7.0,9.0,68,0.00,,,0.00,0.0,meteohub,2013-01-27 11:09:00,
2013-01-27 06:14:00,40.5,32.5,30.35,NE,44,6.0,13.0,68,0.00,,,0.00,0.0,meteohub,2013-01-27 11:14:00,
2013-01-27 06:19:00,40.5,32.5,30.36,ENE,77,3.0,13.0,68,0.00,,,0.00,0.0,meteohub,2013-01-27 11:19:00,
2013-01-27 06:24:00,40.5,32.9,30.36,ENE,64,4.0,13.0,69,0.00,,,0.00,0.0,meteohub,2013-01-27 11:24:00,
2013-01-27 06:29:00,40.5,32.9,30.37,ENE,59,3.0,12.0,69,0.00,,,0.00,0.0,meteohub,2013-01-27 11:29:00,
2013-01-27 06:34:00,40.5,32.9,30.37,ENE,60,2.0,12.0,69,0.00,,,0.00,0.0,meteohub,2013-01-27 11:34:00,
2013-01-27 06:39:00,40.3,32.7,30.37,NNE,22,6.0,9.0,69,0.00,,,0.00,0.0,meteohub,2013-01-27 11:39:00,
2013-01-27 06:44:00,40.3,32.7,30.38,East,82,6.0,10.0,69,0.00,,,0.00,0.0,meteohub,2013-01-27 11:44:00,
2013-01-27 06:49:00,40.1,32.9,30.38,NNE,26,3.0,13.0,70,0.00,,,0.00,0.0,meteohub,2013-01-27 11:49:00,
2013-01-27 06:54:00,39.9,32.7,30.38,ENE,61,0.0,13.0,70,0.00,,,0.00,0.0,meteohub,2013-01-27 11:54:00,
2013-01-27 06:59:00,39.9,32.7,30.38,East,94,4.0,13.0,70,0.00,,,0.00,0.0,meteohub,2013-01-27 11:59:00,
2013-01-27 07:04:00,39.7,32.5,30.38,NE,42,1.0,12.0,70,0.00,,,0.00,0.0,meteohub,2013-01-27 12:04:00,
2013-01-27 07:09:00,39.7,32.5,30.38,NE,40,3.0,12.0,70,0.00,,,0.00,0.0,meteohub,2013-01-27 12:09:00,
2013-01-27 07:14:00,39.6,32.5,30.38,NE,53,13.0,13.0,71,0.00,,,0.00,0.0,meteohub,2013-01-27 12:14:00,
2013-01-27 07:19:00,39.6,32.5,30.39,ENE,69,3.0,15.0,71,0.00,,,0.00,0.0,meteohub,2013-01-27 12:19:00,
2013-01-27 07:24:00,39.6,32.5,30.38,NE,55,1.0,16.0,71,0.00,,,0.00,0.0,meteohub,2013-01-27 12:24:00,
2013-01-27 07:29:00,39.4,32.5,30.38,NE,45,3.0,16.0,71,0.00,,,0.00,0.0,meteohub,2013-01-27 12:29:00,
2013-01-27 07:34:00,39.4,32.7,30.38,North,11,5.0,16.0,72,0.00,,,0.00,0.0,meteohub,2013-01-27 12:34:00,
2013-01-27 07:39:00,39.2,32.5,30.38,NE,47,6.0,16.0,72,0.00,,,0.00,0.0,meteohub,2013-01-27 12:39:00,
2013-01-27 07:44:00,39.2,32.5,30.39,NE,53,0.0,16.0,72,0.00,,,0.00,8.4,meteohub,2013-01-27 12:44:00,
2013-01-27 07:49:00,39.2,32.5,30.40,NE,42,9.0,16.0,72,0.00,,,0.00,13.2,meteohub,2013-01-27 12:49:00,
2013-01-27 07:54:00,39.0,32.4,30.40,NNE,19,8.0,13.0,72,0.00,,,0.00,19.2,meteohub,2013-01-27 12:54:00,
2013-01-27 07:59:00,39.0,32.7,30.40,NE,54,1.0,13.0,73,0.00,,,0.00,22.8,meteohub,2013-01-27 12:59:00,
2013-01-27 08:04:00,39.0,32.7,30.40,NNE,13,14.0,14.0,73,0.00,,,0.00,27.6,meteohub,2013-01-27 13:04:00,
2013-01-27 08:09:00,38.8,32.5,30.41,NNE,27,7.0,14.0,73,0.00,,,0.00,42.0,meteohub,2013-01-27 13:09:00,
2013-01-27 08:14:00,39.0,32.7,30.41,ENE,68,4.0,16.0,73,0.00,,,0.00,63.6,meteohub,2013-01-27 13:14:00,
2013-01-27 08:19:00,39.2,32.9,30.41,NE,39,11.0,16.0,73,0.00,,,0.00,63.6,meteohub,2013-01-27 13:19:00,
2013-01-27 08:24:00,39.2,32.5,30.42,NNE,32,0.0,11.0,72,0.00,,,0.00,55.2,meteohub,2013-01-27 13:24:00,
2013-01-27 08:29:00,39.4,32.7,30.42,NNE,17,6.0,14.0,72,0.00,,,0.00,50.4,meteohub,2013-01-27 13:29:00,
2013-01-27 08:34:00,39.4,32.7,30.42,NNW,327,3.0,14.0,72,0.00,,,0.00,52.8,meteohub,2013-01-27 13:34:00,
2013-01-27 08:39:00,39.4,32.7,30.42,NE,45,3.0,14.0,72,0.00,,,0.00,64.8,meteohub,2013-01-27 13:39:00,
2013-01-27 08:44:00,39.4,32.7,30.43,ENE,63,10.0,10.0,72,0.00,,,0.00,74.4,meteohub,2013-01-27 13:44:00,
2013-01-27 08:49:00,39.4,32.7,30.43,ENE,70,2.0,11.0,72,0.00,,,0.00,94.8,meteohub,2013-01-27 13:49:00,
2013-01-27 08:54:00,39.7,32.7,30.43,ENE,61,0.0,11.0,71,0.00,,,0.00,124.8,meteohub,2013-01-27 13:54:00,
2013-01-27 08:59:00,39.9,32.9,30.43,NE,51,3.0,11.0,71,0.00,,,0.00,136.8,meteohub,2013-01-27 13:59:00,
2013-01-27 09:04:00,40.3,33.1,30.43,NE,55,3.0,11.0,70,0.00,,,0.00,108.0,meteohub,2013-01-27 14:04:00,
2013-01-27 09:09:00,40.3,33.1,30.43,East,98,4.0,8.0,70,0.00,,,0.00,92.4,meteohub,2013-01-27 14:09:00,
2013-01-27 09:14:00,40.3,33.1,30.43,ENE,78,1.0,15.0,70,0.00,,,0.00,100.8,meteohub,2013-01-27 14:14:00,
2013-01-27 09:19:00,40.3,33.1,30.43,NE,53,5.0,15.0,70,0.00,,,0.00,120.0,meteohub,2013-01-27 14:19:00,
2013-01-27 09:24:00,40.5,33.1,30.43,ENE,72,10.0,15.0,70,0.00,,,0.00,133.2,meteohub,2013-01-27 14:24:00,
2013-01-27 09:29:00,40.5,32.9,30.43,ENE,74,2.0,17.0,69,0.00,,,0.00,139.2,meteohub,2013-01-27 14:29:00,
2013-01-27 09:34:00,40.5,32.9,30.43,ENE,78,5.0,18.0,69,0.00,,,0.00,150.0,meteohub,2013-01-27 14:34:00,
2013-01-27 09:39:00,40.6,33.1,30.43,NNE,15,7.0,18.0,69,0.00,,,0.00,160.8,meteohub,2013-01-27 14:39:00,
2013-01-27 09:44:00,41.0,33.4,30.43,NNE,32,0.0,18.0,69,0.00,,,0.00,169.2,meteohub,2013-01-27 14:44:00,
2013-01-27 09:49:00,41.4,33.4,30.43,NE,34,0.0,15.0,68,0.00,,,0.00,172.8,meteohub,2013-01-27 14:49:00,
2013-01-27 09:54:00,41.4,33.4,30.43,ENE,73,4.0,13.0,68,0.00,,,0.00,181.2,meteohub,2013-01-27 14:54:00,
2013-01-27 09:59:00,41.5,33.3,30.43,NNE,20,7.0,12.0,67,0.00,,,0.00,192.0,meteohub,2013-01-27 14:59:00,
2013-01-27 10:04:00,41.5,33.3,30.43,ENE,63,5.0,12.0,67,0.00,,,0.00,186.0,meteohub,2013-01-27 15:04:00,
2013-01-27 10:09:00,41.5,33.3,30.44,ENE,69,0.0,13.0,67,0.00,,,0.00,172.8,meteohub,2013-01-27 15:09:00,
2013-01-27 10:14:00,41.5,33.3,30.44,ENE,67,2.0,13.0,67,0.00,,,0.00,178.8,meteohub,2013-01-27 15:14:00,
2013-01-27 10:19:00,41.5,33.3,30.44,NE,49,3.0,13.0,67,0.00,,,0.00,189.6,meteohub,2013-01-27 15:19:00,
2013-01-27 10:24:00,41.7,33.4,30.44,ENE,61,8.0,15.0,67,0.00,,,0.00,192.0,meteohub,2013-01-27 15:24:00,
2013-01-27 10:29:00,41.7,33.1,30.45,NNE,19,8.0,15.0,66,0.00,,,0.00,202.8,meteohub,2013-01-27 15:29:00,
2013-01-27 10:34:00,41.9,33.3,30.45,NNE,30,3.0,12.0,66,0.00,,,0.00,214.8,meteohub,2013-01-27 15:34:00,
2013-01-27 10:40:00,42.1,33.4,30.45,ENE,68,3.0,12.0,66,0.00,,,0.00,225.6,meteohub,2013-01-27 15:40:00,
2013-01-27 10:45:00,42.8,34.0,30.45,NNE,17,6.0,12.0,66,0.00,,,0.00,213.6,meteohub,2013-01-27 15:45:00,
2013-01-27 10:50:00,42.6,33.4,30.45,East,88,0.0,10.0,65,0.00,,,0.00,219.6,meteohub,2013-01-27 15:50:00,
2013-01-27 10:55:00,42.4,33.4,30.45,NNE,32,5.0,14.0,65,0.00,,,0.00,240.0,meteohub,2013-01-27 15:55:00,
2013-01-27 11:00:00,42.4,33.4,30.45,ENE,62,6.0,16.0,65,0.00,,,0.00,264.0,meteohub,2013-01-27 16:00:00,
2013-01-27 11:05:00,43.2,34.0,30.45,NNE,31,5.0,16.0,65,0.00,,,0.00,295.2,meteohub,2013-01-27 16:05:00,
2013-01-27 11:10:00,43.3,33.8,30.45,NE,53,6.0,16.0,64,0.00,,,0.00,292.8,meteohub,2013-01-27 16:10:00,
2013-01-27 11:15:00,43.2,33.6,30.45,ENE,73,5.0,12.0,64,0.00,,,0.00,283.2,meteohub,2013-01-27 16:15:00,
2013-01-27 11:20:00,43.3,33.8,30.45,ENE,57,4.0,15.0,64,0.00,,,0.00,284.4,meteohub,2013-01-27 16:20:00,
2013-01-27 11:25:00,43.5,34.0,30.44,East,94,8.0,15.0,64,0.00,,,0.00,295.2,meteohub,2013-01-27 16:25:00,
2013-01-27 11:30:00,43.9,34.0,30.43,NE,53,10.0,15.0,63,0.00,,,0.00,309.6,meteohub,2013-01-27 16:30:00,
2013-01-27 11:35:00,44.1,34.2,30.43,NE,42,7.0,15.0,63,0.00,,,0.00,328.8,meteohub,2013-01-27 16:35:00,
2013-01-27 11:40:00,44.4,34.2,30.43,ENE,71,6.0,15.0,62,0.00,,,0.00,301.2,meteohub,2013-01-27 16:40:00,
2013-01-27 11:45:00,44.1,33.4,30.43,ENE,66,4.0,15.0,61,0.00,,,0.00,295.2,meteohub,2013-01-27 16:45:00,
2013-01-27 11:50:00,44.1,33.8,30.43,NE,36,2.0,15.0,62,0.00,,,0.00,314.4,meteohub,2013-01-27 16:50:00,
2013-01-27 11:55:00,45.0,34.3,30.43,NNE,28,9.0,15.0,61,0.00,,,0.00,356.4,meteohub,2013-01-27 16:55:00,
2013-01-27 12:00:00,45.1,34.2,30.42,NE,36,6.0,15.0,60,0.00,,,0.00,344.4,meteohub,2013-01-27 17:00:00,
2013-01-27 12:05:00,45.1,34.2,30.42,NE,38,7.0,16.0,60,0.00,,,0.00,362.4,meteohub,2013-01-27 17:05:00,
2013-01-27 12:10:00,45.9,34.3,30.42,ENE,68,0.0,16.0,59,0.00,,,0.00,373.2,meteohub,2013-01-27 17:10:00,
2013-01-27 12:15:00,46.2,34.7,30.42,NE,42,1.0,16.0,59,0.00,,,0.00,403.2,meteohub,2013-01-27 17:15:00,
2013-01-27 12:20:00,46.8,34.9,30.41,ESE,107,5.0,16.0,58,0.00,,,0.00,394.8,meteohub,2013-01-27 17:20:00,
2013-01-27 12:25:00,46.4,34.5,30.41,NE,48,4.0,10.0,58,0.00,,,0.00,350.4,meteohub,2013-01-27 17:25:00,
2013-01-27 12:30:00,46.4,34.5,30.41,East,93,8.0,13.0,58,0.00,,,0.00,375.6,meteohub,2013-01-27 17:30:00,
2013-01-27 12:35:00,46.9,34.5,30.40,NNE,21,9.0,13.0,57,0.00,,,0.00,369.6,meteohub,2013-01-27 17:35:00,
2013-01-27 12:40:00,47.8,35.1,30.40,ENE,59,3.0,13.0,56,0.00,,,0.00,387.6,meteohub,2013-01-27 17:40:00,
2013-01-27 12:45:00,47.7,34.5,30.40,ENE,63,10.0,13.0,55,0.00,,,0.00,378.0,meteohub,2013-01-27 17:45:00,
2013-01-27 12:50:00,47.1,34.3,30.39,ENE,73,6.0,13.0,56,0.00,,,0.00,373.2,meteohub,2013-01-27 17:50:00,
2013-01-27 12:55:00,47.7,34.5,30.39,East,82,4.0,15.0,55,0.00,,,0.00,484.8,meteohub,2013-01-27 17:55:00,
2013-01-27 13:00:00,47.5,34.3,30.39,ESE,103,4.0,15.0,55,0.00,,,0.00,417.6,meteohub,2013-01-27 18:00:00,
2013-01-27 13:05:00,47.7,34.5,30.39,NNE,23,4.0,14.0,55,0.00,,,0.00,373.2,meteohub,2013-01-27 18:05:00,
2013-01-27 13:10:00,47.7,34.5,30.39,NNE,14,6.0,14.0,55,0.00,,,0.00,361.2,meteohub,2013-01-27 18:10:00,
2013-01-27 13:15:00,47.8,34.2,30.40,NE,42,2.0,14.0,54,0.00,,,0.00,370.8,meteohub,2013-01-27 18:15:00,
2013-01-27 13:20:00,48.0,34.3,30.40,NE,38,11.0,17.0,54,0.00,,,0.00,362.4,meteohub,2013-01-27 18:20:00,
2013-01-27 13:25:00,48.2,34.2,30.40,NNE,25,5.0,17.0,53,0.00,,,0.00,339.6,meteohub,2013-01-27 18:25:00,
2013-01-27 13:30:00,48.0,34.0,30.40,ENE,61,5.0,17.0,53,0.00,,,0.00,316.8,meteohub,2013-01-27 18:30:00,
2013-01-27 13:35:00,48.6,34.9,30.39,NE,39,1.0,14.0,54,0.00,,,0.00,339.6,meteohub,2013-01-27 18:35:00,
2013-01-27 13:40:00,48.4,34.3,30.39,ENE,71,0.0,14.0,53,0.00,,,0.00,342.0,meteohub,2013-01-27 18:40:00,
2013-01-27 13:45:00,49.3,35.1,30.38,ENE,63,0.0,10.0,53,0.00,,,0.00,362.4,meteohub,2013-01-27 18:45:00,
2013-01-27 13:50:00,48.9,34.3,30.38,ENE,74,2.0,10.0,52,0.00,,,0.00,352.8,meteohub,2013-01-27 18:50:00,
2013-01-27 13:55:00,49.1,34.5,30.38,East,82,6.0,10.0,52,0.00,,,0.00,326.4,meteohub,2013-01-27 18:55:00,
2013-01-27 14:00:00,49.5,34.3,30.38,NNE,28,1.0,9.0,51,0.00,,,0.00,274.8,meteohub,2013-01-27 19:00:00,
2013-01-27 14:05:00,49.6,34.5,30.38,ENE,72,5.0,11.0,51,0.00,,,0.00,228.0,meteohub,2013-01-27 19:05:00,
2013-01-27 14:10:00,49.8,35.2,30.38,SSW,211,0.0,11.0,52,0.00,,,0.00,181.2,meteohub,2013-01-27 19:10:00,
2013-01-27 14:15:00,49.5,34.3,30.38,East,82,0.0,11.0,51,0.00,,,0.00,192.0,meteohub,2013-01-27 19:15:00,
2013-01-27 14:20:00,49.8,34.3,30.38,ENE,61,3.0,8.0,50,0.00,,,0.00,214.8,meteohub,2013-01-27 19:20:00,
2013-01-27 14:25:00,49.5,34.3,30.38,East,81,1.0,10.0,51,0.00,,,0.00,278.4,meteohub,2013-01-27 19:25:00,
2013-01-27 14:30:00,50.2,34.7,30.38,ENE,61,0.0,10.0,50,0.00,,,0.00,350.4,meteohub,2013-01-27 19:30:00,
2013-01-27 14:35:00,50.2,34.2,30.38,ENE,73,5.0,12.0,49,0.00,,,0.00,345.6,meteohub,2013-01-27 19:35:00,
2013-01-27 14:40:00,50.2,34.2,30.38,NNE,18,7.0,13.0,49,0.00,,,0.00,300.0,meteohub,2013-01-27 19:40:00,
2013-01-27 14:45:00,50.2,34.7,30.38,East,95,4.0,13.0,50,0.00,,,0.00,286.8,meteohub,2013-01-27 19:45:00,
2013-01-27 14:50:00,50.4,34.3,30.38,ENE,69,1.0,15.0,49,0.00,,,0.00,303.6,meteohub,2013-01-27 19:50:00,
2013-01-27 14:55:00,50.5,34.5,30.38,NE,45,2.0,15.0,49,0.00,,,0.00,286.8,meteohub,2013-01-27 19:55:00,
2013-01-27 15:00:00,50.7,34.7,30.38,East,86,1.0,15.0,49,0.00,,,0.00,228.0,meteohub,2013-01-27 20:00:00,
2013-01-27 15:05:00,50.5,35.1,30.37,East,82,0.0,9.0,50,0.00,,,0.00,169.2,meteohub,2013-01-27 20:05:00,
2013-01-27 15:10:00,50.4,34.9,30.38,NE,55,10.0,10.0,50,0.00,,,0.00,145.2,meteohub,2013-01-27 20:10:00,
2013-01-27 15:16:00,50.2,34.7,30.38,ENE,67,7.0,15.0,50,0.00,,,0.00,205.2,meteohub,2013-01-27 20:16:00,
2013-01-27 15:21:00,50.0,34.5,30.38,NE,55,6.0,15.0,50,0.00,,,0.00,238.8,meteohub,2013-01-27 20:21:00,
2013-01-27 15:26:00,50.5,35.1,30.37,ENE,67,2.0,15.0,50,0.00,,,0.00,172.8,meteohub,2013-01-27 20:26:00,
2013-01-27 15:31:00,50.7,35.6,30.37,NE,50,3.0,14.0,51,0.00,,,0.00,144.0,meteohub,2013-01-27 20:31:00,
2013-01-27 15:36:00,50.5,35.1,30.37,East,82,0.0,13.0,50,0.00,,,0.00,145.2,meteohub,2013-01-27 20:36:00,
2013-01-27 15:41:00,50.5,35.1,30.37,NE,45,3.0,12.0,50,0.00,,,0.00,152.4,meteohub,2013-01-27 20:41:00,
2013-01-27 15:46:00,50.4,34.9,30.38,ENE,74,6.0,9.0,50,0.00,,,0.00,153.6,meteohub,2013-01-27 20:46:00,
2013-01-27 15:51:00,50.0,34.0,30.38,NNE,24,13.0,13.0,49,0.00,,,0.00,166.8,meteohub,2013-01-27 20:51:00,
2013-01-27 15:56:00,50.2,34.7,30.38,NE,46,8.0,14.0,50,0.00,,,0.00,183.6,meteohub,2013-01-27 20:56:00,
2013-01-27 16:01:00,50.2,34.2,30.38,NE,40,1.0,14.0,49,0.00,,,0.00,272.4,meteohub,2013-01-27 21:01:00,
2013-01-27 16:06:00,50.4,34.3,30.38,ENE,65,7.0,14.0,49,0.00,,,0.00,223.2,meteohub,2013-01-27 21:06:00,
2013-01-27 16:11:00,50.4,34.3,30.38,East,96,4.0,12.0,49,0.00,,,0.00,177.6,meteohub,2013-01-27 21:11:00,
2013-01-27 16:16:00,50.4,34.3,30.38,ESE,103,1.0,11.0,49,0.00,,,0.00,144.0,meteohub,2013-01-27 21:16:00,
2013-01-27 16:21:00,50.4,34.3,30.38,NE,50,4.0,11.0,49,0.00,,,0.00,116.4,meteohub,2013-01-27 21:21:00,
2013-01-27 16:26:00,50.2,34.2,30.38,NE,39,7.0,11.0,49,0.00,,,0.00,100.8,meteohub,2013-01-27 21:26:00,
2013-01-27 16:31:00,50.2,34.7,30.38,ESE,105,0.0,11.0,50,0.00,,,0.00,120.0,meteohub,2013-01-27 21:31:00,
2013-01-27 16:36:00,50.0,34.5,30.38,ENE,76,2.0,11.0,50,0.00,,,0.00,114.0,meteohub,2013-01-27 21:36:00,
2013-01-27 16:41:00,50.0,34.5,30.38,ENE,66,3.0,10.0,50,0.00,,,0.00,94.8,meteohub,2013-01-27 21:41:00,
2013-01-27 16:46:00,49.8,34.3,30.38,ENE,72,5.0,11.0,50,0.00,,,0.00,82.8,meteohub,2013-01-27 21:46:00,
2013-01-27 16:51:00,49.8,34.3,30.38,NE,44,2.0,11.0,50,0.00,,,0.00,72.0,meteohub,2013-01-27 21:51:00,
2013-01-27 16:56:00,49.6,34.2,30.38,East,85,3.0,13.0,50,0.00,,,0.00,69.6,meteohub,2013-01-27 21:56:00,
2013-01-27 17:01:00,49.5,34.0,30.39,ENE,61,2.0,13.0,50,0.00,,,0.00,72.0,meteohub,2013-01-27 22:01:00,
2013-01-27 17:06:00,49.5,34.3,30.39,NE,56,4.0,13.0,51,0.00,,,0.00,58.8,meteohub,2013-01-27 22:06:00,
2013-01-27 17:11:00,49.5,34.3,30.39,ENE,57,0.0,10.0,51,0.00,,,0.00,58.8,meteohub,2013-01-27 22:11:00,
2013-01-27 17:16:00,49.5,34.3,30.39,NNE,26,0.0,10.0,51,0.00,,,0.00,48.0,meteohub,2013-01-27 22:16:00,
2013-01-27 17:21:00,49.5,34.3,30.39,ENE,60,0.0,7.0,51,0.00,,,0.00,42.0,meteohub,2013-01-27 22:21:00,
2013-01-27 17:26:00,49.5,34.3,30.39,NE,44,2.0,5.0,51,0.00,,,0.00,42.0,meteohub,2013-01-27 22:26:00,
2013-01-27 17:31:00,49.3,33.8,30.39,ENE,76,4.0,6.0,50,0.00,,,0.00,36.0,meteohub,2013-01-27 22:31:00,
2013-01-27 17:36:00,49.3,34.2,30.40,NE,55,0.0,7.0,51,0.00,,,0.00,30.0,meteohub,2013-01-27 22:36:00,
2013-01-27 17:41:00,49.1,34.2,30.40,ENE,65,0.0,7.0,51,0.00,,,0.00,21.6,meteohub,2013-01-27 22:41:00,
2013-01-27 17:46:00,48.9,34.0,30.40,ENE,63,2.0,7.0,51,0.00,,,0.00,14.4,meteohub,2013-01-27 22:46:00,
2013-01-27 17:51:00,48.9,34.0,30.40,ENE,72,5.0,6.0,51,0.00,,,0.00,8.4,meteohub,2013-01-27 22:51:00,
2013-01-27 17:56:00,48.7,33.8,30.39,ENE,59,2.0,8.0,51,0.00,,,0.00,6.0,meteohub,2013-01-27 22:56:00,
2013-01-27 18:01:00,48.6,33.6,30.39,NE,56,0.0,8.0,51,0.00,,,0.00,0.0,meteohub,2013-01-27 23:01:00,
2013-01-27 18:06:00,48.4,33.4,30.40,NE,54,4.0,8.0,51,0.00,,,0.00,0.0,meteohub,2013-01-27 23:06:00,
2013-01-27 18:11:00,48.0,33.4,30.40,NE,55,1.0,8.0,52,0.00,,,0.00,0.0,meteohub,2013-01-27 23:11:00,
2013-01-27 18:16:00,48.0,33.4,30.40,NE,56,3.0,8.0,52,0.00,,,0.00,0.0,meteohub,2013-01-27 23:16:00,
2013-01-27 18:21:00,47.8,33.3,30.40,NE,34,0.0,7.0,52,0.00,,,0.00,0.0,meteohub,2013-01-27 23:21:00,
2013-01-27 18:27:00,47.8,33.3,30.40,East,83,6.0,8.0,52,0.00,,,0.00,0.0,meteohub,2013-01-27 23:27:00,
2013-01-27 18:32:00,47.7,33.3,30.40,ENE,75,0.0,11.0,52,0.00,,,0.00,0.0,meteohub,2013-01-27 23:32:00,
2013-01-27 18:37:00,47.5,33.1,30.40,NNE,31,1.0,11.0,52,0.00,,,0.00,0.0,meteohub,2013-01-27 23:37:00,
2013-01-27 18:42:00,47.5,33.1,30.40,ENE,62,4.0,11.0,52,0.00,,,0.00,0.0,meteohub,2013-01-27 23:42:00,
2013-01-27 18:47:00,47.5,33.4,30.40,NE,56,1.0,10.0,53,0.00,,,0.00,0.0,meteohub,2013-01-27 23:47:00,
2013-01-27 18:52:00,47.3,33.3,30.41,NNE,27,4.0,10.0,53,0.00,,,0.00,0.0,meteohub,2013-01-27 23:52:00,
2013-01-27 18:57:00,47.1,33.1,30.41,NE,34,2.0,7.0,53,0.00,,,0.00,0.0,meteohub,2013-01-27 23:57:00,
2013-01-27 19:02:00,47.1,33.1,30.41,ENE,71,6.0,7.0,53,0.00,,,0.00,0.0,meteohub,2013-01-28 00:02:00,
2013-01-27 19:07:00,46.9,32.9,30.41,ENE,67,0.0,8.0,53,0.00,,,0.00,0.0,meteohub,2013-01-28 00:07:00,
2013-01-27 19:12:00,46.9,32.9,30.41,NE,37,6.0,8.0,53,0.00,,,0.00,0.0,meteohub,2013-01-28 00:12:00,
2013-01-27 19:17:00,46.9,32.9,30.41,ENE,69,2.0,8.0,53,0.00,,,0.00,0.0,meteohub,2013-01-28 00:17:00,
2013-01-27 19:22:00,46.8,32.7,30.42,ENE,63,1.0,6.0,53,0.00,,,0.00,0.0,meteohub,2013-01-28 00:22:00,
2013-01-27 19:27:00,46.8,32.7,30.42,ENE,78,0.0,6.0,53,0.00,,,0.00,0.0,meteohub,2013-01-28 00:27:00,
2013-01-27 19:32:00,46.6,33.1,30.42,ENE,68,0.0,6.0,54,0.00,,,0.00,0.0,meteohub,2013-01-28 00:32:00,
2013-01-27 19:37:00,46.6,33.1,30.42,ENE,63,0.0,4.0,54,0.00,,,0.00,0.0,meteohub,2013-01-28 00:37:00,
2013-01-27 19:42:00,46.6,33.1,30.42,East,94,0.0,4.0,54,0.00,,,0.00,0.0,meteohub,2013-01-28 00:42:00,
2013-01-27 19:47:00,46.4,32.9,30.41,ENE,78,0.0,4.0,54,0.00,,,0.00,0.0,meteohub,2013-01-28 00:47:00,
2013-01-27 19:52:00,46.2,32.7,30.41,ENE,63,0.0,5.0,54,0.00,,,0.00,0.0,meteohub,2013-01-28 00:52:00,
2013-01-27 19:57:00,46.2,33.1,30.41,NE,47,0.0,5.0,55,0.00,,,0.00,0.0,meteohub,2013-01-28 00:57:00,
2013-01-27 20:02:00,46.0,32.9,30.41,ENE,59,0.0,6.0,55,0.00,,,0.00,0.0,meteohub,2013-01-28 01:02:00,
2013-01-27 20:07:00,46.0,32.9,30.42,ENE,68,1.0,6.0,55,0.00,,,0.00,0.0,meteohub,2013-01-28 01:07:00,
2013-01-27 20:12:00,46.0,32.9,30.42,ENE,59,0.0,6.0,55,0.00,,,0.00,0.0,meteohub,2013-01-28 01:12:00,
2013-01-27 20:17:00,46.0,32.9,30.41,ENE,76,2.0,7.0,55,0.00,,,0.00,0.0,meteohub,2013-01-28 01:17:00,
2013-01-27 20:22:00,46.0,32.9,30.42,NNE,31,1.0,7.0,55,0.00,,,0.00,0.0,meteohub,2013-01-28 01:22:00,
2013-01-27 20:27:00,45.9,32.7,30.41,ENE,59,6.0,7.0,55,0.00,,,0.00,0.0,meteohub,2013-01-28 01:27:00,
2013-01-27 20:32:00,45.9,32.7,30.41,NNE,26,3.0,7.0,55,0.00,,,0.00,0.0,meteohub,2013-01-28 01:32:00,
2013-01-27 20:37:00,45.9,33.3,30.41,NE,55,3.0,7.0,56,0.00,,,0.00,0.0,meteohub,2013-01-28 01:37:00,
2013-01-27 20:42:00,45.7,33.1,30.41,NE,46,3.0,7.0,56,0.00,,,0.00,0.0,meteohub,2013-01-28 01:42:00,
2013-01-27 20:47:00,45.5,32.9,30.41,NNE,30,1.0,7.0,56,0.00,,,0.00,0.0,meteohub,2013-01-28 01:47:00,
2013-01-27 20:52:00,45.5,32.9,30.41,ENE,63,5.0,6.0,56,0.00,,,0.00,0.0,meteohub,2013-01-28 01:52:00,
2013-01-27 20:57:00,45.5,32.9,30.41,ENE,61,2.0,8.0,56,0.00,,,0.00,0.0,meteohub,2013-01-28 01:57:00,
2013-01-27 21:02:00,45.5,32.9,30.41,ENE,62,1.0,11.0,56,0.00,,,0.00,0.0,meteohub,2013-01-28 02:02:00,
2013-01-27 21:07:00,45.5,32.9,30.41,NNE,22,5.0,13.0,56,0.00,,,0.00,0.0,meteohub,2013-01-28 02:07:00,
2013-01-27 21:12:00,45.3,32.7,30.42,NE,52,6.0,13.0,56,0.00,,,0.00,0.0,meteohub,2013-01-28 02:12:00,
2013-01-27 21:17:00,45.3,32.7,30.42,ENE,59,4.0,12.0,56,0.00,,,0.00,0.0,meteohub,2013-01-28 02:17:00,
2013-01-27 21:22:00,45.3,32.7,30.41,NE,50,3.0,7.0,56,0.00,,,0.00,0.0,meteohub,2013-01-28 02:22:00,
2013-01-27 21:27:00,45.1,32.5,30.41,East,80,4.0,7.0,56,0.00,,,0.00,0.0,meteohub,2013-01-28 02:27:00,
2013-01-27 21:32:00,45.1,32.5,30.41,NNE,30,3.0,8.0,56,0.00,,,0.00,0.0,meteohub,2013-01-28 02:32:00,
2013-01-27 21:37:00,45.1,32.5,30.41,NNE,33,1.0,10.0,56,0.00,,,0.00,0.0,meteohub,2013-01-28 02:37:00,
2013-01-27 21:42:00,45.1,32.5,30.41,ENE,57,2.0,10.0,56,0.00,,,0.00,0.0,meteohub,2013-01-28 02:42:00,
2013-01-27 21:47:00,45.1,32.5,30.41,ENE,67,2.0,10.0,56,0.00,,,0.00,0.0,meteohub,2013-01-28 02:47:00,
2013-01-27 21:52:00,45.1,32.5,30.41,ENE,64,0.0,10.0,56,0.00,,,0.00,0.0,meteohub,2013-01-28 02:52:00,
2013-01-27 21:57:00,45.1,32.5,30.41,NE,51,3.0,7.0,56,0.00,,,0.00,0.0,meteohub,2013-01-28 02:57:00,
2013-01-27 22:02:00,45.1,32.5,30.41,NE,46,4.0,6.0,56,0.00,,,0.00,0.0,meteohub,2013-01-28 03:02:00,
2013-01-27 22:07:00,45.1,32.5,30.41,NNE,19,1.0,7.0,56,0.00,,,0.00,0.0,meteohub,2013-01-28 03:07:00,
2013-01-27 22:12:00,45.1,32.5,30.42,ENE,63,0.0,8.0,56,0.00,,,0.00,0.0,meteohub,2013-01-28 03:12:00,
2013-01-27 22:17:00,45.1,32.5,30.42,East,89,0.0,9.0,56,0.00,,,0.00,0.0,meteohub,2013-01-28 03:17:00,
2013-01-27 22:22:00,45.1,32.5,30.41,ENE,76,3.0,9.0,56,0.00,,,0.00,0.0,meteohub,2013-01-28 03:22:00,
2013-01-27 22:27:00,45.1,32.5,30.41,ENE,69,2.0,7.0,56,0.00,,,0.00,0.0,meteohub,2013-01-28 03:27:00,
2013-01-27 22:32:00,45.0,32.4,30.41,ENE,73,3.0,7.0,56,0.00,,,0.00,0.0,meteohub,2013-01-28 03:32:00,
2013-01-27 22:37:00,45.0,32.4,30.41,ENE,75,4.0,8.0,56,0.00,,,0.00,0.0,meteohub,2013-01-28 03:37:00,
2013-01-27 22:42:00,45.0,32.4,30.40,ENE,76,2.0,8.0,56,0.00,,,0.00,0.0,meteohub,2013-01-28 03:42:00,
2013-01-27 22:47:00,45.0,32.4,30.40,ENE,71,0.0,10.0,56,0.00,,,0.00,0.0,meteohub,2013-01-28 03:47:00,
2013-01-27 22:52:00,44.8,32.2,30.40,ENE,74,0.0,10.0,56,0.00,,,0.00,0.0,meteohub,2013-01-28 03:52:00,
2013-01-27 22:57:00,44.8,32.2,30.40,ENE,69,0.0,10.0,56,0.00,,,0.00,0.0,meteohub,2013-01-28 03:57:00,
2013-01-27 23:02:00,44.8,32.2,30.40,ENE,74,3.0,7.0,56,0.00,,,0.00,0.0,meteohub,2013-01-28 04:02:00,
2013-01-27 23:07:00,44.6,32.0,30.40,ENE,62,3.0,8.0,56,0.00,,,0.00,0.0,meteohub,2013-01-28 04:07:00,
2013-01-27 23:12:00,44.8,32.2,30.40,NE,40,2.0,10.0,56,0.00,,,0.00,0.0,meteohub,2013-01-28 04:12:00,
2013-01-27 23:17:00,44.6,32.0,30.40,NE,46,3.0,12.0,56,0.00,,,0.00,0.0,meteohub,2013-01-28 04:17:00,
2013-01-27 23:22:00,44.4,31.8,30.40,ENE,73,4.0,16.0,56,0.00,,,0.00,0.0,meteohub,2013-01-28 04:22:00,
2013-01-27 23:27:00,44.4,31.8,30.40,ENE,68,3.0,16.0,56,0.00,,,0.00,0.0,meteohub,2013-01-28 04:27:00,
2013-01-27 23:32:00,44.4,32.2,30.39,ENE,67,2.0,16.0,57,0.00,,,0.00,0.0,meteohub,2013-01-28 04:32:00,
2013-01-27 23:37:00,44.2,32.0,30.39,NE,36,4.0,10.0,57,0.00,,,0.00,0.0,meteohub,2013-01-28 04:37:00,
2013-01-27 23:42:00,44.2,32.0,30.39,NE,44,6.0,11.0,57,0.00,,,0.00,0.0,meteohub,2013-01-28 04:42:00,
2013-01-27 23:47:00,44.1,31.8,30.39,East,81,3.0,11.0,57,0.00,,,0.00,0.0,meteohub,2013-01-28 04:47:00,
2013-01-27 23:52:00,44.1,32.4,30.39,East,79,2.0,11.0,58,0.00,,,0.00,0.0,meteohub,2013-01-28 04:52:00,
2013-01-27 23:57:00,43.9,32.2,30.39,NNE,23,5.0,12.0,58,0.00,,,0.00,0.0,meteohub,2013-01-28 04:57:00,